Location: Vassar Physics Lab
(41.6843°N, 73.8954°W)
Time: 18:03:44
(UTC-04:00)

CZ-4B DEB - Visible Passes

Search period start: 25 July 2016 00:00
Search period end: 04 August 2016 00:00
Orbit: 842 x 862 km, 98.9° (Epoch: 24 July)

Date Brightness Start Highest point End Pass type
(mag) Time Alt. Az. Time Alt. Az. Time Alt. Az.
25 Jul 6.7 03:15:08 10° ENE 03:17:32 13° E 03:19:56 10° ESE visible
25 Jul 4.3 04:53:19 10° NNE 04:58:54 83° WNW 05:04:24 10° SSW visible
26 Jul 4.4 04:41:56 10° NNE 04:47:31 80° ESE 04:53:02 10° S visible
27 Jul 4.7 04:30:36 10° NNE 04:36:07 64° ESE 04:41:35 10° S visible
28 Jul 5.0 04:19:18 10° NNE 04:24:42 50° E 04:30:02 10° S visible
29 Jul 5.4 04:08:05 10° NNE 04:13:16 40° E 04:18:23 10° SSE visible
30 Jul 5.8 03:56:53 10° NE 04:01:48 32° E 04:06:40 10° SSE visible
31 Jul 6.1 03:45:48 10° NE 03:50:19 25° E 03:54:48 10° SSE visible
01 Aug 6.4 03:34:50 10° NE 03:38:50 20° E 03:42:47 10° SE visible
01 Aug 4.5 05:14:28 10° N 05:19:52 55° WNW 05:25:13 10° SSW visible
02 Aug 6.6 03:24:03 10° NE 03:27:19 16° E 03:30:32 10° SE visible
02 Aug 4.3 05:03:00 10° N 05:08:32 69° WNW 05:13:58 10° SSW visible
03 Aug 6.8 03:13:39 10° ENE 03:15:46 12° E 03:17:52 10° ESE visible
03 Aug 4.2 04:51:36 10° NNE 04:57:10 86° WNW 05:02:39 10° SSW visible
